User: anonymous   Login
Location: Famechon
(49.7599°N, 2.0615°E)
Time: 23:17:07
(UTC+00:00)
Language:

COSMOS 2455 - Orbit

View from above orbital plane
View from above orbital plane
View from above satellite
View from above satellite

Ground track
Ground track

The orbit data is extracted from the following two-line orbital elements,

1 36095U 09063A   24284.45165403  .00000157  00000-0  16624-3 0  9994
2 36095  67.1476 307.8305 0008171 249.9671 110.0535 13.96942121759269
Epoch (UTC): 10 October 2024 10:50:22
Eccentricity: 0.0008171
inclination: 67.1476°
perigee height: 898 km
apogee height: 910 km
right ascension of ascending node: 307.8305°
argument of perigee: 249.9671°
revolutions per day: 13.96942121
mean anomaly at epoch: 110.0535°
orbit number at epoch: 75926

The dashed part of the orbit path shows where the satellite is in the earth's shadow,  

DLR